Lid_Strength_Index
1 0 0 -0 -0 0 2 8 11 4 3 10 11 13 11 9 10 9 12 12 14 15 14 14 13 12 11 8 7 9 9 12 12 12 9 9 11 12 14 15 17 15 15 13
1 0 0 0 -0 -0 4 9 9 4 4 12 11 10 10 9 10 10 13 13 13 12 14 16 12 10 8 7 9 8 8 13 15 14 12 11 12 12 13 14 15 15 15 13
1 1 0 1 -0 -1 4 9 11 7 6 7 10 11 10 10 8 9 10 12 12 13 15 14 13 12 9 8 7 6 7 11 11 13 13 11 13 12 11 13 16 16 14 14
1 1 1 1 0 -1 4 8 10 7 11 9 9 9 9 10 10 9 10 12 12 13 16 14 14 12 12 9 8 10 11 12 11 9 10 10 11 11 11 13 13 13 13 12
1 1 0 0 -0 -1 4 8 7 7 8 7 9 9 11 10 9 10 11 13 12 14 16 15 15 14 15 14 12 12 12 13 12 11 9 10 10 10 10 10 11 12 11 11
1 1 0 1 0 -1 3 3 5 7 8 8 10 10 10 10 8 8 8 10 13 14 14 13 14 14 13 13 15 14 13 13 14 13 11 11 13 11 10 10 11 10 12 10
1 1 1 1 0 -1 1 3 3 7 10 9 9 9 8 9 9 10 8 8 12 12 10 12 14 15 14 13 13 13 14 15 13 15 12 15 10 9 8 9 9 9 10 10
2 1 1 1 0 -1 2 3 4 6 10 8 8 8 8 8 8 9 8 9 9 10 13 16 16 15 15 13 12 12 12 13 14 14 14 13 10 9 10 10 11 9 10 9
2 1 1 1 1 -0 2 3 1 4 8 10 7 8 8 10 10 10 9 8 8 10 15 17 18 18 16 15 13 13 13 12 13 14 15 16 11 7 6 8 13 9 8 8
2 1 1 1 1 0 2 3 2 3 7 7 8 10 10 8 9 11 11 10 10 9 15 18 18 18 15 16 16 16 15 14 15 14 15 13 8 7 6 12 13 8 7 7
2 2 1 1 1 1 3 4 2 3 6 7 5 5 7 7 8 12 11 11 11 11 14 15 16 17 16 16 14 16 16 16 15 14 15 16 7 7 10 9 10 8 7 7
2 2 2 1 1 1 2 6 3 1 4 6 3 3 3 4 5 9 10 11 12 10 12 13 15 15 14 15 15 12 14 14 15 13 13 9 7 8 7 6 8 8 9 8
3 3 2 2 2 2 3 6 5 4 5 6 6 6 4 3 3 3 9 9 9 10 9 12 13 16 15 16 15 15 12 12 14 12 11 10 8 8 8 7 6 5 5 8
3 3 3 2 2 2 2 7 5 4 7 9 8 3 5 2 3 4 4 5 8 9 9 12 13 14 13 15 15 16 14 13 13 11 11 10 9 8 8 8 5 5 5 5
3 3 3 3 2 2 3 5 5 4 6 9 9 5 4 4 5 5 5 6 8 10 11 12 13 12 13 14 15 16 13 13 14 14 12 12 11 9 8 7 5 6 5 5
3 3 3 3 3 3 6 9 5 4 3 6 10 7 6 4 4 5 5 6 7 9 10 11 11 10 12 16 16 13 12 12 13 13 11 11 10 9 7 8 5 5 5 5
3 3 3 4 4 5 9 9 6 4 4 8 10 11 7 5 6 6 6 6 7 7 9 10 10 9 10 14 15 12 12 11 11 11 10 11 10 11 9 6 4 4 5 4
3 3 4 4 4 5 7 6 4 4 7 8 11 11 10 4 7 9 6 8 9 8 8 9 9 9 10 13 12 11 11 11 11 10 10 10 10 9 8 6 4 5 7 6
3 3 4 5 7 9 8 4 4 5 8 11 11 15 13 4 6 6 7 7 10 7 9 8 9 10 12 11 10 9 10 11 11 10 10 10 10 9 8 6 5 6 6 6
4 6 8 10 8 4 5 8 10 10 9 10 13 10 13 10 9 8 8 8 10 12 10 8 10 10 7 7 8 9 9 9 9 11 11 11 11 8 7 7 5 5 5 5
6 7 9 7 4 7 9 13 14 14 15 13 12 12 13 10 12 11 7 10 10 13 11 12 13 13 8 6 6 7 7 8 8 9 9 8 8 10 7 6 5 4 4 5
6 7 6 6 9 10 13 15 14 15 15 13 14 12 11 10 9 10 9 11 11 14 9 12 14 11 9 7 6 6 6 7 7 8 9 9 9 8 5 5 5 4 4 4
5 7 8 9 10 13 15 15 15 16 14 14 13 12 11 11 10 11 11 14 13 11 13 14 12 9 8 8 7 6 6 5 6 7 8 7 6 4 4 5 4 4 4 4
7 8 12 10 11 11 10 10 10 8 11 12 11 11 12 11 12 12 15 13 14 15 16 15 12 10 10 9 8 7 7 6 6 7 7 8 4 4 5 5 4 4 4 4
7 7 12 10 8 7 7 6 7 8 10 10 11 10 11 13 14 15 15 15 16 15 15 14 12 8 6 6 7 7 7 6 6 6 6 6 4 5 5 4 5 5 4 4
6 7 9 8 8 8 7 7 7 7 9 9 9 10 12 12 13 15 15 15 15 12 10 8 7 6 6 6 5 5 5 5 5 5 5 4 4 5 4 4 4 4 4 5
8 8 6 7 8 8 7 6 6 5 7 10 9 12 12 9 12 13 11 13 10 8 7 6 6 6 6 5 5 5 5 5 5 4 4 4 4 4 4 6 5 4 4 4